Regional Weather Roundup
Issued by NWS Portland, ME

Home | Current Version | Previous Version | Text Only | Print | Product List | Glossary On
Versions: 1 2 3 4 5 6 7 8 9 10 11 12 13 14 15 16 17 18 19 20 21 22 23 24 25 26 27 28 29 30 31 32 33 34 35 36 37 38 39 40 41 42 43 44 45 46 47 48 49 50
000
ASUS41 KGYX 260810
RWRGYX
WEATHER ROUNDUP FOR MAINE AND NEW HAMPSHIRE
NATIONAL WEATHER SERVICE GRAY ME
300 AM EST MON JAN 26 2015

MEZ002-005-006-010-012-015-018-020-021-024-026-027-029-260900-
MAINE

CITY           SKY/WX    TMP DP  RH WIND       PRES   REMARKS
PORTLAND       PTCLDY     7  -4  60 CALM      30.10S
SANFORD        PTCLDY    -6 -13  71 NW5       30.07S
BAR HARBOR     CLEAR      7   0  72 W6        30.06R
WISCASSET      CLEAR      3  -5  69 CALM      30.12R
ROCKLAND       CLEAR      7  -2  66 CALM      30.08R
FRYEBURG       PTCLDY    -8 -13  78 CALM      30.07R
LEWISTONAUBURN CLEAR      3  -6  66 NW6       30.06S
AUGUSTA        CLEAR      3  -6  66 W5        30.08R
WATERVILLE     CLEAR      3  -9  55 W6        30.04R
BANGOR         CLEAR      4  -6  63 W8        30.06R
GREENVILLE       N/A     -2  -8  76 VRB7G21   29.89R
MILLINOCKET    CLEAR      4  -7  60 W10       30.01R WCI -11
HOULTON        CLEAR      3  -8  60 NW12      29.94R WCI -13
PRESQUE ISLE   CLEAR      1  -9  60 NW6       29.93R
FRENCHVILLE    CLEAR     -3 -12  65 NW15      29.88R WCI -23
CARIBOU        CLEAR      0 -12  57 NW12      29.92R WCI -17
$$

NHZ002-005-008-009-011-012-014-260900-
NEW HAMPSHIRE

CITY           SKY/WX    TMP DP  RH WIND       PRES   REMARKS
PORTSMOUTH     CLOUDY     8  -5  55 NW8       30.08R
ROCHESTER      MOCLDY     4  -6  63 CALM      30.06S
NASHUA           N/A     11  -3  53 NW10      30.09S WCI  -2
MANCHESTER     MOCLDY     9  -3  58 NW10      30.07R WCI  -5
CONCORD        MOCLDY     6  -5  60 NW9       30.08F
LACONIA        PTCLDY     5  -6  61 SW5       30.04S
PLYMOUTH       FAIR       5  -1  74 W7        30.08S
BERLIN         PTCLDY   -10 -17  71 CALM      30.01R
WHITEFIELD     PTCLDY   -11 -16  78 CALM      30.04R
JAFFREY        MOCLDY     7  -4  60 NE3       30.00S
KEENE          MOCLDY     9  -2  61 N8        30.06S
LEBANON        PTCLDY     0  -5  79 CALM      30.09S
MT WASHINGTON  MOCLDY    -6 -15  65 NW44        N/A  WCI -38
$$

VTZ005-007-008-260900-
VERMONT

CITY           SKY/WX    TMP DP  RH WIND       PRES   REMARKS
ST JOHNSBURY     N/A     -8 -12  83 MISG      30.09R
MONTPELIER     PTCLDY    -4  -8  83 S3        30.08R
BURLINGTON     PTCLDY     3  -7  63 E3        30.14S
$$

MAZ007-012-024-CTZ003-RIZ002-NYZ038-NYZ072-260900-
SOUTHERN NEW ENGLAND AND NY

CITY           SKY/WX    TMP DP  RH WIND       PRES   REMARKS
BOSTON         CLOUDY    14  -1  51 NW12      30.09R WCI   0
WORCESTER      MOCLDY    12   0  58 N7        29.99R
NANTUCKET      MOCLDY    27  13  55 N14       30.04S WCI  16
PROVIDENCE     CLOUDY    21   6  52 N8        30.08R
HARTFORD       CLOUDY    18   3  52 N9        30.06S
ALBANY         MOCLDY    11  -1  58 N6        30.11R
NEW YORK CITY  CLOUDY    25   5  42 NE10      30.02F WCI  15
$$

ANZ081-ANZ082-ANZ150-NHZ014-MEZ023>029-260900-
COASTAL MARINE OBSERVATIONS

STATION/POSITION TIME  TEMP    WIND        PRES    WAVE
                       AIR SEA DIR/SP/G            HT/PER
                 (UTC) (F)     (DEG/KT/KT) (MB)    (FT/S)
MOUNT DESERT ROC 0800   16                 1017.2R
MATINICUS ROCK   0700          330/ 22/ 24 1017.9R
PORTLAND WX BUOY 0750   13 39  350/ 14/ 17 1018.5F   3/12
WELLS            0700   10 36  280/  1/  2 1018.5R
ISLE OF SHOALS   0700   14     330/ 17/ 20 1017.6R
JEFFREYS LEDGE   0721      44                N/A     5/ 5
CASHES LEDGE BUO 0750   23 45  350/ 17/ 23 1016.8R   8/ 6
$$

.............KEY..............
   WCI - WIND CHILL
   TC  - TEMPERATURE IN CELSIUS
   VSB - VISIBILITY IN MILES
   HX  - HEAT INDEX
   FAIR- INDICATES FEW OR NO CLOUDS BELOW 12,000 FT, WITH NO
         SIGNIFICANT WEATHER AND/OR OBSTRUCTIONS TO VISIBILITY.





USA.gov is the U.S. government's official web portal to all federal, state and local government web resources and services.